Two Harbors, MN

1:37 AM CDT on March 25, 2017 (GMT -0500)
Helgeson

Weather History for KTWM - February, 2013

Change the Weather History Date:

Wednesday, February 20, 2013

  Actual Average Record
Temperature  
Mean Temperature 1 °F -  
Max Temperature 15 °F 30 °F 46 °F (2017)
Min Temperature -13 °F 11 °F -19 °F (1966)
Degree Days  
Heating Degree Days 64    
Moisture  
Dew Point -10 °F    
Average Humidity 55    
Maximum Humidity 71    
Minimum Humidity 35    
Precipitation  
Precipitation 0.00 in - - ()
Sea Level Pressure  
Sea Level Pressure 30.37 in    
Wind  
Wind Speed 3 mph (NE)    
Max Wind Speed 9 mph    
Max Gust Speed -    
Visibility 10 miles    
Events      
Averages and records for this station are not official NWS values.
T = Trace of Precipitation, MM = Missing Value Source: NWS Daily Summary

Daily Weather History Graph

Daily Weather History Graph

Search for Another Location

Airport or City:

Trip Planner

Search our weather history database for the weather conditions in past years. The results will help you decide how hot, cold, wet, or windy it might be!

Date:

Astronomy

Feb. 20, 2013 Rise Set
Actual Time 7:02 AM CST 5:39 PM CST
Civil Twilight 6:31 AM CST 6:10 PM CST
Nautical Twilight 5:56 AM CST 6:45 PM CST
Astronomical Twilight 5:21 AM CST 7:21 PM CST
Moon 12:49 PM CST (2/20) 3:35 AM CST (2/20)
Length of Visible Light 11h 38m
Length of Day
10h 36m
Waxing Gibbous, 76% of the Moon is Illuminated
Feb 20
Waxing Gibbous
Feb 25
Full
Mar 4
Last Quarter
Mar 11
New
Mar 19
First Quarter

Hourly Weather History & Observations

Time (CST) Temp. Windchill Dew Point Humidity Pressure Visibility Wind Dir Wind Speed Gust Speed Precip Events Conditions
12:11 AM -0.4 °F -10.4 °F -9.4 °F 66% 30.24 in 10.0 mi North 4.6 mph - N/A   Clear
12:31 AM -0.4 °F -13.4 °F -9.4 °F 66% 30.25 in 10.0 mi NNW 6.9 mph - N/A   Clear
12:52 AM -2.2 °F - -11.2 °F 66% 30.26 in 10.0 mi Calm Calm - N/A   Clear
1:11 AM -2.2 °F -12.5 °F -11.2 °F 66% 30.26 in 10.0 mi NNW 4.6 mph - N/A   Clear
1:31 AM -2.2 °F - -11.2 °F 66% 30.27 in 10.0 mi Calm Calm - N/A   Clear
1:52 AM -2.2 °F - -11.2 °F 66% 30.28 in 10.0 mi Calm Calm - N/A   Clear
2:11 AM -2.2 °F -14.2 °F -11.2 °F 66% 30.28 in 10.0 mi North 5.8 mph - N/A   Clear
2:52 AM -4.0 °F - -13.0 °F 65% 30.30 in 10.0 mi Calm Calm - N/A   Clear
3:11 AM -4.0 °F -14.6 °F -13.0 °F 65% 30.30 in 10.0 mi North 4.6 mph - N/A   Clear
3:31 AM -4.0 °F -16.3 °F -13.0 °F 65% 30.31 in 10.0 mi North 5.8 mph - N/A   Clear
3:51 AM -5.8 °F - -14.8 °F 65% 30.32 in 10.0 mi Calm Calm - N/A   Clear
4:11 AM -5.8 °F - -14.8 °F 65% 30.33 in 10.0 mi Calm Calm - N/A   Clear
4:32 AM -5.8 °F -14.5 °F -14.8 °F 65% 30.34 in 10.0 mi NNW 3.5 mph - N/A   Clear
4:51 AM -5.8 °F - -14.8 °F 65% 30.35 in 10.0 mi Calm Calm - N/A   Clear
5:12 AM -9.4 °F - -16.6 °F 71% 30.36 in 10.0 mi Calm Calm - N/A   Clear
5:31 AM -9.4 °F - -16.6 °F 71% 30.36 in 10.0 mi Calm Calm - N/A   Clear
5:51 AM -13.0 °F - -20.2 °F 70% 30.37 in 10.0 mi Calm Calm - N/A   Clear
6:12 AM -11.2 °F - -18.4 °F 70% 30.37 in 10.0 mi Calm Calm - N/A   Clear
6:31 AM -11.2 °F -23.0 °F -18.4 °F 70% 30.38 in 10.0 mi North 4.6 mph - N/A   Clear
7:12 AM -9.4 °F - -18.4 °F 65% 30.39 in 10.0 mi Calm Calm - N/A   Clear
7:31 AM -7.6 °F -22.1 °F -16.6 °F 65% 30.39 in 10.0 mi NNW 6.9 mph - N/A   Clear
7:51 AM -5.8 °F - -16.6 °F 60% 30.39 in 10.0 mi Calm Calm - N/A   Clear
8:12 AM -2.2 °F -12.5 °F -14.8 °F 55% 30.40 in 10.0 mi NNE 4.6 mph - N/A   Clear
8:31 AM -2.2 °F -14.2 °F -14.8 °F 55% 30.39 in 10.0 mi North 5.8 mph - N/A   Clear
8:51 AM 1.4 °F -8.3 °F -13.0 °F 51% 30.40 in 10.0 mi North 4.6 mph - N/A   Clear
9:12 AM 3.2 °F -11.3 °F -11.2 °F 51% 30.39 in 10.0 mi NNE 9.2 mph - N/A   Clear
9:31 AM 5.0 °F -5.6 °F -11.2 °F 47% 30.40 in 10.0 mi ENE 5.8 mph - N/A   Clear
9:51 AM 6.8 °F -2.0 °F -11.2 °F 44% 30.39 in 10.0 mi NNE 4.6 mph - N/A   Clear
10:12 AM 8.6 °F 0.1 °F -11.2 °F 40% 30.39 in 10.0 mi ENE 4.6 mph - N/A   Clear
10:31 AM 10.4 °F 4.0 °F -9.4 °F 41% 30.39 in 10.0 mi ENE 3.5 mph - N/A   Clear
10:51 AM 10.4 °F 4.0 °F -9.4 °F 41% 30.39 in 10.0 mi NE 3.5 mph - N/A   Clear
11:12 AM 12.2 °F 2.9 °F -7.6 °F 41% 30.39 in 10.0 mi ENE 5.8 mph - N/A   Clear
11:31 AM 14.0 °F 8.2 °F -7.6 °F 38% 30.38 in 10.0 mi NE 3.5 mph - N/A   Clear
11:51 AM 15.8 °F 7.2 °F -7.6 °F 35% 30.39 in 10.0 mi ESE 5.8 mph - N/A   Clear
12:11 PM 14.0 °F 8.2 °F -7.6 °F 38% 30.39 in 10.0 mi SE 3.5 mph - N/A   Clear
12:31 PM 14.0 °F 3.9 °F -7.6 °F 38% 30.38 in 10.0 mi South 6.9 mph - N/A   Clear
12:51 PM 14.0 °F 3.9 °F -5.8 °F 41% 30.39 in 10.0 mi South 6.9 mph - N/A   Clear
1:11 PM 14.0 °F 5.1 °F -4.0 °F 45% 30.39 in 10.0 mi ESE 5.8 mph - N/A   Clear
1:32 PM 14.0 °F 3.9 °F -4.0 °F 45% 30.38 in 10.0 mi SE 6.9 mph - N/A   Clear
2:11 PM 15.8 °F 8.6 °F -4.0 °F 41% 30.38 in 10.0 mi ESE 4.6 mph - N/A   Clear
2:32 PM 15.8 °F 8.6 °F -2.2 °F 45% 30.39 in 10.0 mi SSE 4.6 mph - N/A   Clear
2:51 PM 15.8 °F - -2.2 °F 45% 30.39 in 10.0 mi Calm Calm - N/A   Clear
3:11 PM 15.8 °F 8.6 °F -2.2 °F 45% 30.40 in 10.0 mi SSE 4.6 mph - N/A   Clear
3:32 PM 15.8 °F 7.2 °F -2.2 °F 45% 30.40 in 10.0 mi SE 5.8 mph - N/A   Clear
3:51 PM 14.0 °F 5.1 °F -0.4 °F 53% 30.41 in 10.0 mi SSE 5.8 mph - N/A   Clear
4:11 PM 14.0 °F 6.5 °F -2.2 °F 49% 30.42 in 10.0 mi South 4.6 mph - N/A   Clear
4:32 PM 14.0 °F 6.5 °F -0.4 °F 53% 30.41 in 10.0 mi SSE 4.6 mph - N/A   Clear
4:51 PM 12.2 °F - -0.4 °F 57% 30.41 in 10.0 mi Calm Calm - N/A   Clear
5:11 PM 12.2 °F - -2.2 °F 53% 30.41 in 10.0 mi Calm Calm - N/A   Clear
5:32 PM 10.4 °F - -2.2 °F 57% 30.41 in 10.0 mi Calm Calm - N/A   Clear
5:51 PM 8.6 °F - -4.0 °F 57% 30.42 in 10.0 mi Calm Calm - N/A   Clear
6:11 PM 6.8 °F - -4.0 °F 61% 30.42 in 10.0 mi Calm Calm - N/A   Clear
6:32 PM 6.8 °F - -5.8 °F 56% 30.42 in 10.0 mi Calm Calm - N/A   Clear
7:11 PM -0.4 °F - -9.4 °F 66% 30.42 in 10.0 mi Calm Calm - N/A   Clear
7:32 PM -0.4 °F - -9.4 °F 66% 30.42 in 10.0 mi Calm Calm - N/A   Clear
7:51 PM -2.2 °F -10.4 °F -9.4 °F 71% 30.42 in 10.0 mi North 3.5 mph - N/A   Clear
8:11 PM 1.4 °F -9.9 °F -7.6 °F 66% 30.41 in 10.0 mi North 5.8 mph - N/A   Clear
8:32 PM 3.2 °F -7.8 °F -7.6 °F 61% 30.41 in 10.0 mi North 5.8 mph - N/A   Clear
8:51 PM 3.2 °F -6.2 °F -9.4 °F 56% 30.40 in 10.0 mi North 4.6 mph - N/A   Clear
9:11 PM 5.0 °F -5.6 °F -11.2 °F 47% 30.40 in 10.0 mi North 5.8 mph - N/A   Clear
9:32 PM 5.0 °F -5.6 °F -11.2 °F 47% 30.39 in 10.0 mi NNE 5.8 mph - N/A   Clear
9:51 PM 3.2 °F -7.8 °F -11.2 °F 51% 30.38 in 10.0 mi NNE 5.8 mph - N/A   Clear
10:31 PM 3.2 °F -7.8 °F -13.0 °F 47% 30.38 in 10.0 mi North 5.8 mph - N/A   Clear
10:51 PM 5.0 °F -5.6 °F -13.0 °F 43% 30.39 in - North 5.8 mph - N/A   Clear
11:11 PM 3.2 °F -7.8 °F -13.0 °F 47% 30.39 in 10.0 mi North 5.8 mph - N/A   Clear
11:31 PM 5.0 °F -6.9 °F -13.0 °F 43% 30.39 in 10.0 mi North 6.9 mph - N/A   Clear
11:51 PM 5.0 °F -5.6 °F -11.2 °F 47% 30.38 in 10.0 mi North 5.8 mph - N/A   Clear